Data supplied by UK-AIR on 2/5/2013
All Data GMT hour ending 
Status: R =Ratified P=Provisional,P*=As supplied
,,Inverness,,,,,,,,,,,,,,,,,,,,,,,
Date,time,"Nitric oxide",status,unit,"Nitrogen dioxide",status,unit,"Nitrogen oxides as nitrogen dioxide",status,unit,"Daily measured PM<sub>10</sub> (uncorrected)",status,unit,"Daily measured PM<sub>2.5</sub> (uncorrected)",status,unit
 
01-01-2011,01:00,0,R,ugm-3,2,R,ugm-3,2,R,ugm-3,,,,,,
01-01-2011,02:00,0,R,ugm-3,2,R,ugm-3,2,R,ugm-3,,,,,,
01-01-2011,03:00,0,R,ugm-3,2,R,ugm-3,2,R,ugm-3,,,,,,
01-01-2011,04:00,0,R,ugm-3,4,R,ugm-3,4,R,ugm-3,,,,,,
01-01-2011,05:00,0,R,ugm-3,4,R,ugm-3,4,R,ugm-3,,,,,,
01-01-2011,06:00,1,R,ugm-3,2,R,ugm-3,4,R,ugm-3,,,,,,
01-01-2011,07:00,1,R,ugm-3,6,R,ugm-3,8,R,ugm-3,,,,,,
01-01-2011,08:00,1,R,ugm-3,6,R,ugm-3,8,R,ugm-3,,,,,,
01-01-2011,09:00,3,R,ugm-3,10,R,ugm-3,13,R,ugm-3,,,,,,
01-01-2011,10:00,3,R,ugm-3,6,R,ugm-3,10,R,ugm-3,,,,,,
01-01-2011,11:00,3,R,ugm-3,8,R,ugm-3,11,R,ugm-3,,,,,,
01-01-2011,12:00,1,R,ugm-3,6,R,ugm-3,8,R,ugm-3,,,,,,
01-01-2011,13:00,3,R,ugm-3,10,R,ugm-3,13,R,ugm-3,,,,,,
01-01-2011,14:00,1,R,ugm-3,6,R,ugm-3,8,R,ugm-3,,,,,,
01-01-2011,15:00,1,R,ugm-3,6,R,ugm-3,8,R,ugm-3,,,,,,
01-01-2011,16:00,11,R,ugm-3,32,R,ugm-3,50,R,ugm-3,,,,,,
01-01-2011,17:00,4,R,ugm-3,17,R,ugm-3,23,R,ugm-3,,,,,,
01-01-2011,18:00,13,R,ugm-3,36,R,ugm-3,55,R,ugm-3,,,,,,
01-01-2011,19:00,10,R,ugm-3,31,R,ugm-3,46,R,ugm-3,,,,,,
01-01-2011,20:00,9,R,ugm-3,27,R,ugm-3,40,R,ugm-3,,,,,,
01-01-2011,21:00,8,R,ugm-3,21,R,ugm-3,32,R,ugm-3,,,,,,
01-01-2011,22:00,6,R,ugm-3,21,R,ugm-3,31,R,ugm-3,,,,,,
01-01-2011,23:00,5,R,ugm-3,10,R,ugm-3,17,R,ugm-3,,,,,,
01-01-2011,24:00,4,R,ugm-3,10,R,ugm-3,15,R,ugm-3,,,,,,
02-01-2011,01:00,3,R,ugm-3,6,R,ugm-3,10,R,ugm-3,,,,,,
02-01-2011,02:00,1,R,ugm-3,6,R,ugm-3,8,R,ugm-3,,,,,,
02-01-2011,03:00,3,R,ugm-3,4,R,ugm-3,8,R,ugm-3,,,,,,
02-01-2011,04:00,1,R,ugm-3,4,R,ugm-3,6,R,ugm-3,,,,,,
02-01-2011,05:00,3,R,ugm-3,6,R,ugm-3,10,R,ugm-3,,,,,,
02-01-2011,06:00,1,R,ugm-3,6,R,ugm-3,8,R,ugm-3,,,,,,
02-01-2011,07:00,3,R,ugm-3,15,R,ugm-3,19,R,ugm-3,,,,,,
02-01-2011,08:00,4,R,ugm-3,17,R,ugm-3,23,R,ugm-3,,,,,,
02-01-2011,09:00,10,R,ugm-3,29,R,ugm-3,44,R,ugm-3,,,,,,
02-01-2011,10:00,9,R,ugm-3,29,R,ugm-3,42,R,ugm-3,,,,,,
02-01-2011,11:00,11,R,ugm-3,31,R,ugm-3,48,R,ugm-3,,,,,,
02-01-2011,12:00,20,R,ugm-3,34,R,ugm-3,65,R,ugm-3,,,,,,
02-01-2011,13:00,30,R,ugm-3,55,R,ugm-3,101,R,ugm-3,,,,,,
02-01-2011,14:00,18,R,ugm-3,40,R,ugm-3,67,R,ugm-3,,,,,,
02-01-2011,15:00,26,R,ugm-3,50,R,ugm-3,90,R,ugm-3,,,,,,
02-01-2011,16:00,21,R,ugm-3,53,R,ugm-3,86,R,ugm-3,,,,,,
02-01-2011,17:00,49,R,ugm-3,73,R,ugm-3,147,R,ugm-3,,,,,,
02-01-2011,18:00,35,R,ugm-3,55,R,ugm-3,109,R,ugm-3,,,,,,
02-01-2011,19:00,30,R,ugm-3,63,R,ugm-3,109,R,ugm-3,,,,,,
02-01-2011,20:00,21,R,ugm-3,48,R,ugm-3,80,R,ugm-3,,,,,,
02-01-2011,21:00,26,R,ugm-3,57,R,ugm-3,97,R,ugm-3,,,,,,
02-01-2011,22:00,19,R,ugm-3,40,R,ugm-3,69,R,ugm-3,,,,,,
02-01-2011,23:00,9,R,ugm-3,17,R,ugm-3,31,R,ugm-3,,,,,,
02-01-2011,24:00,6,R,ugm-3,13,R,ugm-3,23,R,ugm-3,,,,,,
03-01-2011,01:00,3,R,ugm-3,6,R,ugm-3,10,R,ugm-3,,,,,,
03-01-2011,02:00,1,R,ugm-3,6,R,ugm-3,8,R,ugm-3,,,,,,
03-01-2011,03:00,1,R,ugm-3,6,R,ugm-3,8,R,ugm-3,,,,,,
03-01-2011,04:00,1,R,ugm-3,6,R,ugm-3,8,R,ugm-3,,,,,,
03-01-2011,05:00,1,R,ugm-3,4,R,ugm-3,6,R,ugm-3,,,,,,
03-01-2011,06:00,3,R,ugm-3,6,R,ugm-3,10,R,ugm-3,,,,,,
03-01-2011,07:00,3,R,ugm-3,6,R,ugm-3,10,R,ugm-3,,,,,,
03-01-2011,08:00,3,R,ugm-3,8,R,ugm-3,11,R,ugm-3,,,,,,
03-01-2011,09:00,5,R,ugm-3,8,R,ugm-3,15,R,ugm-3,,,,,,
03-01-2011,10:00,6,R,ugm-3,10,R,ugm-3,19,R,ugm-3,,,,,,
03-01-2011,11:00,8,R,ugm-3,15,R,ugm-3,27,R,ugm-3,,,,,,
03-01-2011,12:00,10,R,ugm-3,15,R,ugm-3,31,R,ugm-3,,,,,,
03-01-2011,13:00,10,R,ugm-3,13,R,ugm-3,29,R,ugm-3,,,,,,
03-01-2011,14:00,8,R,ugm-3,15,R,ugm-3,27,R,ugm-3,,,,,,
03-01-2011,15:00,10,R,ugm-3,13,R,ugm-3,29,R,ugm-3,,,,,,
03-01-2011,16:00,10,R,ugm-3,15,R,ugm-3,31,R,ugm-3,,,,,,
03-01-2011,17:00,11,R,ugm-3,11,R,ugm-3,29,R,ugm-3,,,,,,
03-01-2011,18:00,11,R,ugm-3,19,R,ugm-3,36,R,ugm-3,,,,,,
03-01-2011,19:00,11,R,ugm-3,17,R,ugm-3,34,R,ugm-3,,,,,,
03-01-2011,20:00,6,R,ugm-3,11,R,ugm-3,21,R,ugm-3,,,,,,
03-01-2011,21:00,8,R,ugm-3,15,R,ugm-3,27,R,ugm-3,,,,,,
03-01-2011,22:00,6,R,ugm-3,10,R,ugm-3,19,R,ugm-3,,,,,,
03-01-2011,23:00,4,R,ugm-3,10,R,ugm-3,15,R,ugm-3,,,,,,
03-01-2011,24:00,1,R,ugm-3,8,R,ugm-3,10,R,ugm-3,,,,,,
04-01-2011,01:00,3,R,ugm-3,4,R,ugm-3,8,R,ugm-3,,,,,,
04-01-2011,02:00,1,R,ugm-3,4,R,ugm-3,6,R,ugm-3,,,,,,
04-01-2011,03:00,1,R,ugm-3,2,R,ugm-3,4,R,ugm-3,,,,,,
04-01-2011,04:00,1,R,ugm-3,2,R,ugm-3,4,R,ugm-3,,,,,,
04-01-2011,05:00,1,R,ugm-3,2,R,ugm-3,4,R,ugm-3,,,,,,
04-01-2011,06:00,1,R,ugm-3,6,R,ugm-3,8,R,ugm-3,,,,,,
04-01-2011,07:00,4,R,ugm-3,6,R,ugm-3,11,R,ugm-3,,,,,,
04-01-2011,08:00,9,R,ugm-3,11,R,ugm-3,25,R,ugm-3,,,,,,
04-01-2011,09:00,8,R,ugm-3,11,R,ugm-3,23,R,ugm-3,,,,,,
04-01-2011,10:00,10,R,ugm-3,13,R,ugm-3,29,R,ugm-3,,,,,,
04-01-2011,11:00,11,R,ugm-3,19,R,ugm-3,36,R,ugm-3,,,,,,
04-01-2011,12:00,14,R,ugm-3,25,R,ugm-3,46,R,ugm-3,,,,,,
04-01-2011,13:00,20,R,ugm-3,31,R,ugm-3,61,R,ugm-3,,,,,,
04-01-2011,14:00,25,R,ugm-3,34,R,ugm-3,73,R,ugm-3,,,,,,
04-01-2011,15:00,16,R,ugm-3,23,R,ugm-3,48,R,ugm-3,,,,,,
04-01-2011,16:00,25,R,ugm-3,36,R,ugm-3,74,R,ugm-3,,,,,,
04-01-2011,17:00,23,R,ugm-3,38,R,ugm-3,73,R,ugm-3,,,,,,
04-01-2011,18:00,29,R,ugm-3,46,R,ugm-3,90,R,ugm-3,,,,,,
04-01-2011,19:00,36,R,ugm-3,53,R,ugm-3,109,R,ugm-3,,,,,,
04-01-2011,20:00,11,R,ugm-3,19,R,ugm-3,36,R,ugm-3,,,,,,
04-01-2011,21:00,13,R,ugm-3,25,R,ugm-3,44,R,ugm-3,,,,,,
04-01-2011,22:00,8,R,ugm-3,19,R,ugm-3,31,R,ugm-3,,,,,,
04-01-2011,23:00,9,R,ugm-3,21,R,ugm-3,34,R,ugm-3,,,,,,
04-01-2011,24:00,8,R,ugm-3,25,R,ugm-3,36,R,ugm-3,,,,,,
05-01-2011,01:00,3,R,ugm-3,17,R,ugm-3,21,R,ugm-3,,,,,,
05-01-2011,02:00,3,R,ugm-3,15,R,ugm-3,19,R,ugm-3,,,,,,
05-01-2011,03:00,5,R,ugm-3,13,R,ugm-3,21,R,ugm-3,,,,,,
05-01-2011,04:00,3,R,ugm-3,8,R,ugm-3,11,R,ugm-3,,,,,,
05-01-2011,05:00,5,R,ugm-3,6,R,ugm-3,13,R,ugm-3,,,,,,
05-01-2011,06:00,9,R,ugm-3,13,R,ugm-3,27,R,ugm-3,,,,,,
05-01-2011,07:00,14,R,ugm-3,32,R,ugm-3,53,R,ugm-3,,,,,,
05-01-2011,08:00,81,R,ugm-3,74,R,ugm-3,199,R,ugm-3,,,,,,
05-01-2011,09:00,103,R,ugm-3,101,R,ugm-3,258,R,ugm-3,,,,,,
05-01-2011,10:00,74,R,ugm-3,78,R,ugm-3,191,R,ugm-3,,,,,,
05-01-2011,11:00,46,R,ugm-3,59,R,ugm-3,130,R,ugm-3,,,,,,
05-01-2011,12:00,36,R,ugm-3,42,R,ugm-3,97,R,ugm-3,,,,,,
05-01-2011,13:00,40,R,ugm-3,40,R,ugm-3,101,R,ugm-3,,,,,,
05-01-2011,14:00,59,R,ugm-3,65,R,ugm-3,155,R,ugm-3,,,,,,
05-01-2011,15:00,66,R,ugm-3,73,R,ugm-3,174,R,ugm-3,,,,,,
05-01-2011,16:00,53,R,ugm-3,61,R,ugm-3,141,R,ugm-3,,,,,,
05-01-2011,17:00,38,R,ugm-3,53,R,ugm-3,111,R,ugm-3,,,,,,
05-01-2011,18:00,28,R,ugm-3,40,R,ugm-3,82,R,ugm-3,,,,,,
05-01-2011,19:00,24,R,ugm-3,25,R,ugm-3,61,R,ugm-3,,,,,,
05-01-2011,20:00,15,R,ugm-3,21,R,ugm-3,44,R,ugm-3,,,,,,
05-01-2011,21:00,13,R,ugm-3,17,R,ugm-3,36,R,ugm-3,,,,,,
05-01-2011,22:00,6,R,ugm-3,10,R,ugm-3,19,R,ugm-3,,,,,,
05-01-2011,23:00,4,R,ugm-3,4,R,ugm-3,10,R,ugm-3,,,,,,
05-01-2011,24:00,3,R,ugm-3,4,R,ugm-3,8,R,ugm-3,,,,,,
06-01-2011,01:00,1,R,ugm-3,4,R,ugm-3,6,R,ugm-3,,,,,,
06-01-2011,02:00,1,R,ugm-3,0,R,ugm-3,2,R,ugm-3,,,,,,
06-01-2011,03:00,1,R,ugm-3,0,R,ugm-3,2,R,ugm-3,,,,,,
06-01-2011,04:00,0,R,ugm-3,2,R,ugm-3,2,R,ugm-3,,,,,,
06-01-2011,05:00,1,R,ugm-3,4,R,ugm-3,6,R,ugm-3,,,,,,
06-01-2011,06:00,1,R,ugm-3,6,R,ugm-3,8,R,ugm-3,,,,,,
06-01-2011,07:00,13,R,ugm-3,15,R,ugm-3,34,R,ugm-3,,,,,,
06-01-2011,08:00,19,R,ugm-3,27,R,ugm-3,55,R,ugm-3,,,,,,
06-01-2011,09:00,36,R,ugm-3,52,R,ugm-3,107,R,ugm-3,,,,,,
06-01-2011,10:00,26,R,ugm-3,38,R,ugm-3,78,R,ugm-3,,,,,,
06-01-2011,11:00,23,R,ugm-3,32,R,ugm-3,67,R,ugm-3,,,,,,
06-01-2011,12:00,34,R,ugm-3,46,R,ugm-3,97,R,ugm-3,,,,,,
06-01-2011,13:00,36,R,ugm-3,44,R,ugm-3,99,R,ugm-3,,,,,,
06-01-2011,14:00,33,R,ugm-3,38,R,ugm-3,88,R,ugm-3,,,,,,
06-01-2011,15:00,40,R,ugm-3,50,R,ugm-3,111,R,ugm-3,,,,,,
06-01-2011,16:00,40,R,ugm-3,42,R,ugm-3,103,R,ugm-3,,,,,,
06-01-2011,17:00,53,R,ugm-3,63,R,ugm-3,143,R,ugm-3,,,,,,
06-01-2011,18:00,39,R,ugm-3,52,R,ugm-3,111,R,ugm-3,,,,,,
06-01-2011,19:00,33,R,ugm-3,52,R,ugm-3,101,R,ugm-3,,,,,,
06-01-2011,20:00,19,R,ugm-3,25,R,ugm-3,53,R,ugm-3,,,,,,
06-01-2011,21:00,15,R,ugm-3,23,R,ugm-3,46,R,ugm-3,,,,,,
06-01-2011,22:00,18,R,ugm-3,36,R,ugm-3,63,R,ugm-3,,,,,,
06-01-2011,23:00,20,R,ugm-3,50,R,ugm-3,80,R,ugm-3,,,,,,
06-01-2011,24:00,5,R,ugm-3,19,R,ugm-3,27,R,ugm-3,,,,,,
07-01-2011,01:00,1,R,ugm-3,10,R,ugm-3,11,R,ugm-3,,,,,,
07-01-2011,02:00,0,R,ugm-3,10,R,ugm-3,10,R,ugm-3,,,,,,
07-01-2011,03:00,0,R,ugm-3,6,R,ugm-3,6,R,ugm-3,,,,,,
07-01-2011,04:00,0,R,ugm-3,8,R,ugm-3,8,R,ugm-3,,,,,,
07-01-2011,05:00,3,R,ugm-3,13,R,ugm-3,17,R,ugm-3,,,,,,
07-01-2011,06:00,3,R,ugm-3,8,R,ugm-3,11,R,ugm-3,,,,,,
07-01-2011,07:00,5,R,ugm-3,11,R,ugm-3,19,R,ugm-3,,,,,,
07-01-2011,08:00,11,R,ugm-3,21,R,ugm-3,38,R,ugm-3,,,,,,
07-01-2011,09:00,19,R,ugm-3,29,R,ugm-3,57,R,ugm-3,,,,,,
07-01-2011,10:00,16,R,ugm-3,29,R,ugm-3,53,R,ugm-3,,,,,,
07-01-2011,11:00,16,R,ugm-3,29,R,ugm-3,53,R,ugm-3,,,,,,
07-01-2011,12:00,18,R,ugm-3,23,R,ugm-3,50,R,ugm-3,,,,,,
07-01-2011,13:00,23,R,ugm-3,23,R,ugm-3,57,R,ugm-3,,,,,,
07-01-2011,14:00,16,R,ugm-3,25,R,ugm-3,50,R,ugm-3,,,,,,
07-01-2011,15:00,16,R,ugm-3,31,R,ugm-3,55,R,ugm-3,,,,,,
07-01-2011,16:00,21,R,ugm-3,31,R,ugm-3,63,R,ugm-3,,,,,,
07-01-2011,17:00,34,R,ugm-3,55,R,ugm-3,107,R,ugm-3,,,,,,
07-01-2011,18:00,60,R,ugm-3,84,R,ugm-3,176,R,ugm-3,,,,,,
07-01-2011,19:00,69,R,ugm-3,101,R,ugm-3,206,R,ugm-3,,,,,,
07-01-2011,20:00,48,R,ugm-3,73,R,ugm-3,145,R,ugm-3,,,,,,
07-01-2011,21:00,46,R,ugm-3,71,R,ugm-3,141,R,ugm-3,,,,,,
07-01-2011,22:00,20,R,ugm-3,59,R,ugm-3,90,R,ugm-3,,,,,,
07-01-2011,23:00,16,R,ugm-3,53,R,ugm-3,78,R,ugm-3,,,,,,
07-01-2011,24:00,10,R,ugm-3,40,R,ugm-3,55,R,ugm-3,,,,,,
08-01-2011,01:00,8,R,ugm-3,25,R,ugm-3,36,R,ugm-3,,,,,,
08-01-2011,02:00,1,R,ugm-3,10,R,ugm-3,11,R,ugm-3,,,,,,
08-01-2011,03:00,1,R,ugm-3,8,R,ugm-3,10,R,ugm-3,,,,,,
08-01-2011,04:00,1,R,ugm-3,10,R,ugm-3,11,R,ugm-3,,,,,,
08-01-2011,05:00,1,R,ugm-3,8,R,ugm-3,10,R,ugm-3,,,,,,
08-01-2011,06:00,1,R,ugm-3,13,R,ugm-3,15,R,ugm-3,,,,,,
08-01-2011,07:00,5,R,ugm-3,15,R,ugm-3,23,R,ugm-3,,,,,,
08-01-2011,08:00,11,R,ugm-3,29,R,ugm-3,46,R,ugm-3,,,,,,
08-01-2011,09:00,6,R,ugm-3,25,R,ugm-3,34,R,ugm-3,,,,,,
08-01-2011,10:00,36,R,ugm-3,48,R,ugm-3,103,R,ugm-3,,,,,,
08-01-2011,11:00,28,R,ugm-3,32,R,ugm-3,74,R,ugm-3,,,,,,
08-01-2011,12:00,23,R,ugm-3,32,R,ugm-3,67,R,ugm-3,,,,,,
08-01-2011,13:00,35,R,ugm-3,42,R,ugm-3,96,R,ugm-3,,,,,,
08-01-2011,14:00,56,R,ugm-3,67,R,ugm-3,153,R,ugm-3,,,,,,
08-01-2011,15:00,84,R,ugm-3,90,R,ugm-3,218,R,ugm-3,,,,,,
08-01-2011,16:00,63,R,ugm-3,73,R,ugm-3,168,R,ugm-3,,,,,,
08-01-2011,17:00,61,R,ugm-3,76,R,ugm-3,170,R,ugm-3,,,,,,
08-01-2011,18:00,60,R,ugm-3,80,R,ugm-3,172,R,ugm-3,,,,,,
08-01-2011,19:00,40,R,ugm-3,48,R,ugm-3,109,R,ugm-3,,,,,,
08-01-2011,20:00,30,R,ugm-3,50,R,ugm-3,96,R,ugm-3,,,,,,
08-01-2011,21:00,25,R,ugm-3,44,R,ugm-3,82,R,ugm-3,,,,,,
08-01-2011,22:00,10,R,ugm-3,21,R,ugm-3,36,R,ugm-3,,,,,,
08-01-2011,23:00,6,R,ugm-3,13,R,ugm-3,23,R,ugm-3,,,,,,
08-01-2011,24:00,9,R,ugm-3,19,R,ugm-3,32,R,ugm-3,,,,,,
09-01-2011,01:00,4,R,ugm-3,11,R,ugm-3,17,R,ugm-3,,,,,,
09-01-2011,02:00,4,R,ugm-3,6,R,ugm-3,11,R,ugm-3,,,,,,
09-01-2011,03:00,4,R,ugm-3,6,R,ugm-3,11,R,ugm-3,,,,,,
09-01-2011,04:00,3,R,ugm-3,2,R,ugm-3,6,R,ugm-3,,,,,,
09-01-2011,05:00,1,R,ugm-3,0,R,ugm-3,2,R,ugm-3,,,,,,
09-01-2011,06:00,1,R,ugm-3,4,R,ugm-3,6,R,ugm-3,,,,,,
09-01-2011,07:00,4,R,ugm-3,4,R,ugm-3,10,R,ugm-3,,,,,,
09-01-2011,08:00,5,R,ugm-3,10,R,ugm-3,17,R,ugm-3,,,,,,
09-01-2011,09:00,5,R,ugm-3,10,R,ugm-3,17,R,ugm-3,,,,,,
09-01-2011,10:00,18,R,ugm-3,42,R,ugm-3,69,R,ugm-3,,,,,,
09-01-2011,11:00,19,R,ugm-3,31,R,ugm-3,59,R,ugm-3,,,,,,
09-01-2011,12:00,30,R,ugm-3,46,R,ugm-3,92,R,ugm-3,,,,,,
09-01-2011,13:00,35,R,ugm-3,40,R,ugm-3,94,R,ugm-3,,,,,,
09-01-2011,14:00,38,R,ugm-3,55,R,ugm-3,113,R,ugm-3,,,,,,
09-01-2011,15:00,41,R,ugm-3,52,R,ugm-3,115,R,ugm-3,,,,,,
09-01-2011,16:00,28,R,ugm-3,42,R,ugm-3,84,R,ugm-3,,,,,,
09-01-2011,17:00,29,R,ugm-3,36,R,ugm-3,80,R,ugm-3,,,,,,
09-01-2011,18:00,26,R,ugm-3,40,R,ugm-3,80,R,ugm-3,,,,,,
09-01-2011,19:00,43,R,ugm-3,57,R,ugm-3,122,R,ugm-3,,,,,,
09-01-2011,20:00,26,R,ugm-3,44,R,ugm-3,84,R,ugm-3,,,,,,
09-01-2011,21:00,16,R,ugm-3,38,R,ugm-3,63,R,ugm-3,,,,,,
09-01-2011,22:00,25,R,ugm-3,61,R,ugm-3,99,R,ugm-3,,,,,,
09-01-2011,23:00,23,R,ugm-3,50,R,ugm-3,84,R,ugm-3,,,,,,
09-01-2011,24:00,1,R,ugm-3,6,R,ugm-3,8,R,ugm-3,,,,,,
10-01-2011,01:00,1,R,ugm-3,4,R,ugm-3,6,R,ugm-3,,,,,,
10-01-2011,02:00,1,R,ugm-3,2,R,ugm-3,4,R,ugm-3,,,,,,
10-01-2011,03:00,1,R,ugm-3,2,R,ugm-3,4,R,ugm-3,,,,,,
10-01-2011,04:00,1,R,ugm-3,2,R,ugm-3,4,R,ugm-3,,,,,,
10-01-2011,05:00,3,R,ugm-3,6,R,ugm-3,10,R,ugm-3,,,,,,
10-01-2011,06:00,4,R,ugm-3,6,R,ugm-3,11,R,ugm-3,,,,,,
10-01-2011,07:00,9,R,ugm-3,11,R,ugm-3,25,R,ugm-3,,,,,,
10-01-2011,08:00,34,R,ugm-3,38,R,ugm-3,90,R,ugm-3,,,,,,
10-01-2011,09:00,44,R,ugm-3,42,R,ugm-3,109,R,ugm-3,,,,,,
10-01-2011,10:00,49,R,ugm-3,65,R,ugm-3,139,R,ugm-3,,,,,,
10-01-2011,11:00,74,R,ugm-3,78,R,ugm-3,191,R,ugm-3,,,,,,
10-01-2011,12:00,119,R,ugm-3,99,R,ugm-3,281,R,ugm-3,,,,,,
10-01-2011,13:00,125,R,ugm-3,105,R,ugm-3,296,R,ugm-3,,,,,,
10-01-2011,14:00,130,R,ugm-3,111,R,ugm-3,309,R,ugm-3,,,,,,
10-01-2011,15:00,59,R,ugm-3,74,R,ugm-3,164,R,ugm-3,,,,,,
10-01-2011,16:00,48,R,ugm-3,69,R,ugm-3,141,R,ugm-3,,,,,,
10-01-2011,17:00,26,R,ugm-3,57,R,ugm-3,97,R,ugm-3,,,,,,
10-01-2011,18:00,33,R,ugm-3,50,R,ugm-3,99,R,ugm-3,,,,,,
10-01-2011,19:00,33,R,ugm-3,46,R,ugm-3,96,R,ugm-3,,,,,,
10-01-2011,20:00,60,R,ugm-3,67,R,ugm-3,159,R,ugm-3,,,,,,
10-01-2011,21:00,90,R,ugm-3,71,R,ugm-3,208,R,ugm-3,,,,,,
10-01-2011,22:00,6,R,ugm-3,32,R,ugm-3,42,R,ugm-3,,,,,,
10-01-2011,23:00,5,R,ugm-3,27,R,ugm-3,34,R,ugm-3,,,,,,
10-01-2011,24:00,3,R,ugm-3,19,R,ugm-3,23,R,ugm-3,,,,,,
11-01-2011,01:00,1,R,ugm-3,11,R,ugm-3,13,R,ugm-3,,,,,,
11-01-2011,02:00,1,R,ugm-3,8,R,ugm-3,10,R,ugm-3,,,,,,
11-01-2011,03:00,1,R,ugm-3,10,R,ugm-3,11,R,ugm-3,,,,,,
11-01-2011,04:00,1,R,ugm-3,4,R,ugm-3,6,R,ugm-3,,,,,,
11-01-2011,05:00,3,R,ugm-3,8,R,ugm-3,11,R,ugm-3,,,,,,
11-01-2011,06:00,24,R,ugm-3,31,R,ugm-3,67,R,ugm-3,,,,,,
11-01-2011,07:00,33,R,ugm-3,55,R,ugm-3,105,R,ugm-3,,,,,,
11-01-2011,08:00,101,R,ugm-3,74,R,ugm-3,229,R,ugm-3,,,,,,
11-01-2011,09:00,46,R,ugm-3,69,R,ugm-3,139,R,ugm-3,,,,,,
11-01-2011,10:00,84,R,ugm-3,82,R,ugm-3,210,R,ugm-3,,,,,,
11-01-2011,11:00,100,R,ugm-3,88,R,ugm-3,241,R,ugm-3,,,,,,
11-01-2011,12:00,58,R,ugm-3,61,R,ugm-3,149,R,ugm-3,,,,,,
11-01-2011,13:00,38,R,ugm-3,42,R,ugm-3,99,R,ugm-3,,,,,,
11-01-2011,14:00,43,R,ugm-3,50,R,ugm-3,115,R,ugm-3,,,,,,
11-01-2011,15:00,48,R,ugm-3,55,R,ugm-3,128,R,ugm-3,,,,,,
11-01-2011,16:00,134,R,ugm-3,166,R,ugm-3,371,R,ugm-3,,,,,,
11-01-2011,17:00,66,R,ugm-3,71,R,ugm-3,172,R,ugm-3,,,,,,
11-01-2011,18:00,70,R,ugm-3,67,R,ugm-3,174,R,ugm-3,,,,,,
11-01-2011,19:00,33,R,ugm-3,42,R,ugm-3,92,R,ugm-3,,,,,,
11-01-2011,20:00,29,R,ugm-3,38,R,ugm-3,82,R,ugm-3,,,,,,
11-01-2011,21:00,21,R,ugm-3,36,R,ugm-3,69,R,ugm-3,,,,,,
11-01-2011,22:00,26,R,ugm-3,57,R,ugm-3,97,R,ugm-3,,,,,,
11-01-2011,23:00,9,R,ugm-3,31,R,ugm-3,44,R,ugm-3,,,,,,
11-01-2011,24:00,14,R,ugm-3,44,R,ugm-3,65,R,ugm-3,,,,,,
12-01-2011,01:00,3,R,ugm-3,27,R,ugm-3,31,R,ugm-3,,,,,,
12-01-2011,02:00,1,R,ugm-3,13,R,ugm-3,15,R,ugm-3,,,,,,
12-01-2011,03:00,3,R,ugm-3,17,R,ugm-3,21,R,ugm-3,,,,,,
12-01-2011,04:00,1,R,ugm-3,11,R,ugm-3,13,R,ugm-3,,,,,,
12-01-2011,05:00,1,R,ugm-3,13,R,ugm-3,15,R,ugm-3,,,,,,
12-01-2011,06:00,6,R,ugm-3,31,R,ugm-3,40,R,ugm-3,,,,,,
12-01-2011,07:00,50,R,ugm-3,73,R,ugm-3,149,R,ugm-3,,,,,,
12-01-2011,08:00,266,R,ugm-3,136,R,ugm-3,542,R,ugm-3,,,,,,
12-01-2011,09:00,120,R,ugm-3,113,R,ugm-3,296,R,ugm-3,,,,,,
12-01-2011,10:00,184,R,ugm-3,122,R,ugm-3,403,R,ugm-3,,,,,,
12-01-2011,11:00,39,R,ugm-3,42,R,ugm-3,101,R,ugm-3,,,,,,
12-01-2011,12:00,26,R,ugm-3,31,R,ugm-3,71,R,ugm-3,,,,,,
12-01-2011,13:00,45,R,ugm-3,57,R,ugm-3,126,R,ugm-3,,,,,,
12-01-2011,14:00,33,R,ugm-3,44,R,ugm-3,94,R,ugm-3,,,,,,
12-01-2011,15:00,18,R,ugm-3,31,R,ugm-3,57,R,ugm-3,,,,,,
12-01-2011,16:00,28,R,ugm-3,40,R,ugm-3,82,R,ugm-3,,,,,,
12-01-2011,17:00,41,R,ugm-3,57,R,ugm-3,120,R,ugm-3,,,,,,
12-01-2011,18:00,45,R,ugm-3,65,R,ugm-3,134,R,ugm-3,,,,,,
12-01-2011,19:00,28,R,ugm-3,59,R,ugm-3,101,R,ugm-3,,,,,,
12-01-2011,20:00,28,R,ugm-3,55,R,ugm-3,97,R,ugm-3,,,,,,
12-01-2011,21:00,15,R,ugm-3,38,R,ugm-3,61,R,ugm-3,,,,,,
12-01-2011,22:00,10,R,ugm-3,27,R,ugm-3,42,R,ugm-3,,,,,,
12-01-2011,23:00,8,R,ugm-3,31,R,ugm-3,42,R,ugm-3,,,,,,
12-01-2011,24:00,11,R,ugm-3,50,R,ugm-3,67,R,ugm-3,,,,,,
13-01-2011,01:00,6,R,ugm-3,23,R,ugm-3,32,R,ugm-3,,,,,,
13-01-2011,02:00,6,R,ugm-3,21,R,ugm-3,31,R,ugm-3,,,,,,
13-01-2011,03:00,1,R,ugm-3,17,R,ugm-3,19,R,ugm-3,,,,,,
13-01-2011,04:00,5,R,ugm-3,19,R,ugm-3,27,R,ugm-3,,,,,,
13-01-2011,05:00,1,R,ugm-3,13,R,ugm-3,15,R,ugm-3,,,,,,
13-01-2011,06:00,5,R,ugm-3,23,R,ugm-3,31,R,ugm-3,,,,,,
13-01-2011,07:00,20,R,ugm-3,31,R,ugm-3,61,R,ugm-3,,,,,,
13-01-2011,08:00,70,R,ugm-3,63,R,ugm-3,170,R,ugm-3,,,,,,
13-01-2011,09:00,71,R,ugm-3,69,R,ugm-3,178,R,ugm-3,,,,,,
13-01-2011,10:00,118,R,ugm-3,76,R,ugm-3,256,R,ugm-3,,,,,,
13-01-2011,11:00,91,R,ugm-3,71,R,ugm-3,210,R,ugm-3,,,,,,
13-01-2011,12:00,83,R,ugm-3,73,R,ugm-3,199,R,ugm-3,,,,,,
13-01-2011,13:00,75,R,ugm-3,69,R,ugm-3,183,R,ugm-3,,,,,,
13-01-2011,14:00,61,R,ugm-3,63,R,ugm-3,157,R,ugm-3,,,,,,
13-01-2011,15:00,45,R,ugm-3,57,R,ugm-3,126,R,ugm-3,,,,,,
13-01-2011,16:00,79,R,ugm-3,76,R,ugm-3,197,R,ugm-3,,,,,,
13-01-2011,17:00,71,R,ugm-3,74,R,ugm-3,183,R,ugm-3,,,,,,
13-01-2011,18:00,105,R,ugm-3,78,R,ugm-3,239,R,ugm-3,,,,,,
13-01-2011,19:00,60,R,ugm-3,63,R,ugm-3,155,R,ugm-3,,,,,,
13-01-2011,20:00,20,R,ugm-3,44,R,ugm-3,74,R,ugm-3,,,,,,
13-01-2011,21:00,63,R,ugm-3,69,R,ugm-3,164,R,ugm-3,,,,,,
13-01-2011,22:00,20,R,ugm-3,40,R,ugm-3,71,R,ugm-3,,,,,,
13-01-2011,23:00,16,R,ugm-3,36,R,ugm-3,61,R,ugm-3,,,,,,
13-01-2011,24:00,4,R,ugm-3,23,R,ugm-3,29,R,ugm-3,,,,,,
14-01-2011,01:00,5,R,ugm-3,29,R,ugm-3,36,R,ugm-3,,,,,,
14-01-2011,02:00,1,R,ugm-3,31,R,ugm-3,32,R,ugm-3,,,,,,
14-01-2011,03:00,1,R,ugm-3,27,R,ugm-3,29,R,ugm-3,,,,,,
14-01-2011,04:00,4,R,ugm-3,31,R,ugm-3,36,R,ugm-3,,,,,,
14-01-2011,05:00,20,R,ugm-3,36,R,ugm-3,67,R,ugm-3,,,,,,
14-01-2011,06:00,30,R,ugm-3,36,R,ugm-3,82,R,ugm-3,,,,,,
14-01-2011,07:00,58,R,ugm-3,52,R,ugm-3,139,R,ugm-3,,,,,,
14-01-2011,08:00,134,R,ugm-3,97,R,ugm-3,302,R,ugm-3,,,,,,
14-01-2011,09:00,115,R,ugm-3,115,R,ugm-3,290,R,ugm-3,,,,,,
14-01-2011,10:00,75,R,ugm-3,80,R,ugm-3,195,R,ugm-3,,,,,,
14-01-2011,11:00,21,R,ugm-3,38,R,ugm-3,71,R,ugm-3,,,,,,
14-01-2011,12:00,20,R,ugm-3,32,R,ugm-3,63,R,ugm-3,,,,,,
14-01-2011,13:00,16,R,ugm-3,34,R,ugm-3,59,R,ugm-3,,,,,,
14-01-2011,14:00,16,R,ugm-3,27,R,ugm-3,52,R,ugm-3,,,,,,
14-01-2011,15:00,25,R,ugm-3,38,R,ugm-3,76,R,ugm-3,,,,,,
14-01-2011,16:00,30,R,ugm-3,38,R,ugm-3,84,R,ugm-3,,,,,,
14-01-2011,17:00,25,R,ugm-3,44,R,ugm-3,82,R,ugm-3,,,,,,
14-01-2011,18:00,30,R,ugm-3,44,R,ugm-3,90,R,ugm-3,,,,,,
14-01-2011,19:00,31,R,ugm-3,44,R,ugm-3,92,R,ugm-3,,,,,,
14-01-2011,20:00,14,R,ugm-3,25,R,ugm-3,46,R,ugm-3,,,,,,
14-01-2011,21:00,9,R,ugm-3,23,R,ugm-3,36,R,ugm-3,,,,,,
14-01-2011,22:00,6,R,ugm-3,15,R,ugm-3,25,R,ugm-3,,,,,,
14-01-2011,23:00,1,R,ugm-3,8,R,ugm-3,10,R,ugm-3,,,,,,
14-01-2011,24:00,1,R,ugm-3,8,R,ugm-3,10,R,ugm-3,,,,,,
15-01-2011,01:00,3,R,ugm-3,4,R,ugm-3,8,R,ugm-3,,,,,,
15-01-2011,02:00,1,R,ugm-3,6,R,ugm-3,8,R,ugm-3,,,,,,
15-01-2011,03:00,1,R,ugm-3,17,R,ugm-3,19,R,ugm-3,,,,,,
15-01-2011,04:00,3,R,ugm-3,4,R,ugm-3,8,R,ugm-3,,,,,,
15-01-2011,05:00,3,R,ugm-3,4,R,ugm-3,8,R,ugm-3,,,,,,
15-01-2011,06:00,1,R,ugm-3,2,R,ugm-3,4,R,ugm-3,,,,,,
15-01-2011,07:00,4,R,ugm-3,6,R,ugm-3,11,R,ugm-3,,,,,,
15-01-2011,08:00,6,R,ugm-3,10,R,ugm-3,19,R,ugm-3,,,,,,
15-01-2011,09:00,8,R,ugm-3,13,R,ugm-3,25,R,ugm-3,,,,,,
15-01-2011,10:00,9,R,ugm-3,13,R,ugm-3,27,R,ugm-3,,,,,,
15-01-2011,11:00,11,R,ugm-3,17,R,ugm-3,34,R,ugm-3,,,,,,
15-01-2011,12:00,18,R,ugm-3,27,R,ugm-3,53,R,ugm-3,,,,,,
15-01-2011,13:00,16,R,ugm-3,19,R,ugm-3,44,R,ugm-3,,,,,,
15-01-2011,14:00,10,R,ugm-3,13,R,ugm-3,29,R,ugm-3,,,,,,
15-01-2011,15:00,14,R,ugm-3,13,R,ugm-3,34,R,ugm-3,,,,,,
15-01-2011,16:00,10,R,ugm-3,17,R,ugm-3,32,R,ugm-3,,,,,,
15-01-2011,17:00,14,R,ugm-3,17,R,ugm-3,38,R,ugm-3,,,,,,
15-01-2011,18:00,13,R,ugm-3,23,R,ugm-3,42,R,ugm-3,,,,,,
15-01-2011,19:00,9,R,ugm-3,13,R,ugm-3,27,R,ugm-3,,,,,,
15-01-2011,20:00,9,R,ugm-3,15,R,ugm-3,29,R,ugm-3,,,,,,
15-01-2011,21:00,8,R,ugm-3,11,R,ugm-3,23,R,ugm-3,,,,,,
15-01-2011,22:00,4,R,ugm-3,8,R,ugm-3,13,R,ugm-3,,,,,,
15-01-2011,23:00,4,R,ugm-3,2,R,ugm-3,8,R,ugm-3,,,,,,
15-01-2011,24:00,3,R,ugm-3,4,R,ugm-3,8,R,ugm-3,,,,,,
16-01-2011,01:00,1,R,ugm-3,4,R,ugm-3,6,R,ugm-3,,,,,,
16-01-2011,02:00,3,R,ugm-3,2,R,ugm-3,6,R,ugm-3,,,,,,
16-01-2011,03:00,1,R,ugm-3,4,R,ugm-3,6,R,ugm-3,,,,,,
16-01-2011,04:00,1,R,ugm-3,2,R,ugm-3,4,R,ugm-3,,,,,,
16-01-2011,05:00,1,R,ugm-3,2,R,ugm-3,4,R,ugm-3,,,,,,
16-01-2011,06:00,1,R,ugm-3,2,R,ugm-3,4,R,ugm-3,,,,,,
16-01-2011,07:00,1,R,ugm-3,4,R,ugm-3,6,R,ugm-3,,,,,,
16-01-2011,08:00,4,R,ugm-3,4,R,ugm-3,10,R,ugm-3,,,,,,
16-01-2011,09:00,4,R,ugm-3,6,R,ugm-3,11,R,ugm-3,,,,,,
16-01-2011,10:00,4,R,ugm-3,6,R,ugm-3,11,R,ugm-3,,,,,,
16-01-2011,11:00,4,R,ugm-3,4,R,ugm-3,10,R,ugm-3,,,,,,
16-01-2011,12:00,6,R,ugm-3,10,R,ugm-3,19,R,ugm-3,,,,,,
16-01-2011,13:00,16,R,ugm-3,23,R,ugm-3,48,R,ugm-3,,,,,,
16-01-2011,14:00,11,R,ugm-3,17,R,ugm-3,34,R,ugm-3,,,,,,
16-01-2011,15:00,14,R,ugm-3,21,R,ugm-3,42,R,ugm-3,,,,,,
16-01-2011,16:00,14,R,ugm-3,19,R,ugm-3,40,R,ugm-3,,,,,,
16-01-2011,17:00,10,R,ugm-3,15,R,ugm-3,31,R,ugm-3,,,,,,
16-01-2011,18:00,11,R,ugm-3,11,R,ugm-3,29,R,ugm-3,,,,,,
16-01-2011,19:00,10,R,ugm-3,17,R,ugm-3,32,R,ugm-3,,,,,,
16-01-2011,20:00,6,R,ugm-3,10,R,ugm-3,19,R,ugm-3,,,,,,
16-01-2011,21:00,4,R,ugm-3,4,R,ugm-3,10,R,ugm-3,,,,,,
16-01-2011,22:00,4,R,ugm-3,2,R,ugm-3,8,R,ugm-3,,,,,,
16-01-2011,23:00,3,R,ugm-3,4,R,ugm-3,8,R,ugm-3,,,,,,
16-01-2011,24:00,1,R,ugm-3,2,R,ugm-3,4,R,ugm-3,,,,,,
17-01-2011,01:00,1,R,ugm-3,2,R,ugm-3,4,R,ugm-3,,,,,,
17-01-2011,02:00,1,R,ugm-3,2,R,ugm-3,4,R,ugm-3,,,,,,
17-01-2011,03:00,1,R,ugm-3,2,R,ugm-3,4,R,ugm-3,,,,,,
17-01-2011,04:00,1,R,ugm-3,2,R,ugm-3,4,R,ugm-3,,,,,,
17-01-2011,05:00,3,R,ugm-3,2,R,ugm-3,6,R,ugm-3,,,,,,
17-01-2011,06:00,4,R,ugm-3,4,R,ugm-3,10,R,ugm-3,,,,,,
17-01-2011,07:00,6,R,ugm-3,13,R,ugm-3,23,R,ugm-3,,,,,,
17-01-2011,08:00,28,R,ugm-3,36,R,ugm-3,78,R,ugm-3,,,,,,
17-01-2011,09:00,49,R,ugm-3,63,R,ugm-3,138,R,ugm-3,,,,,,
17-01-2011,10:00,26,R,ugm-3,34,R,ugm-3,74,R,ugm-3,,,,,,
17-01-2011,11:00,28,R,ugm-3,34,R,ugm-3,76,R,ugm-3,,,,,,
17-01-2011,12:00,28,R,ugm-3,38,R,ugm-3,80,R,ugm-3,,,,,,
17-01-2011,13:00,20,R,ugm-3,31,R,ugm-3,61,R,ugm-3,,,,,,
17-01-2011,14:00,19,R,ugm-3,32,R,ugm-3,61,R,ugm-3,,,,,,
17-01-2011,15:00,18,R,ugm-3,31,R,ugm-3,57,R,ugm-3,,,,,,
17-01-2011,16:00,20,R,ugm-3,29,R,ugm-3,59,R,ugm-3,,,,,,
17-01-2011,17:00,30,R,ugm-3,42,R,ugm-3,88,R,ugm-3,,,,,,
17-01-2011,18:00,50,R,ugm-3,63,R,ugm-3,139,R,ugm-3,,,,,,
17-01-2011,19:00,21,R,ugm-3,31,R,ugm-3,63,R,ugm-3,,,,,,
17-01-2011,20:00,15,R,ugm-3,19,R,ugm-3,42,R,ugm-3,,,,,,
17-01-2011,21:00,8,R,ugm-3,13,R,ugm-3,25,R,ugm-3,,,,,,
17-01-2011,22:00,8,R,ugm-3,17,R,ugm-3,29,R,ugm-3,,,,,,
17-01-2011,23:00,5,R,ugm-3,10,R,ugm-3,17,R,ugm-3,,,,,,
17-01-2011,24:00,3,R,ugm-3,8,R,ugm-3,11,R,ugm-3,,,,,,
18-01-2011,01:00,3,R,ugm-3,4,R,ugm-3,8,R,ugm-3,,,,,,
18-01-2011,02:00,1,R,ugm-3,4,R,ugm-3,6,R,ugm-3,,,,,,
18-01-2011,03:00,1,R,ugm-3,0,R,ugm-3,2,R,ugm-3,,,,,,
18-01-2011,04:00,1,R,ugm-3,4,R,ugm-3,6,R,ugm-3,,,,,,
18-01-2011,05:00,4,R,ugm-3,4,R,ugm-3,10,R,ugm-3,,,,,,
18-01-2011,06:00,3,R,ugm-3,6,R,ugm-3,10,R,ugm-3,,,,,,
18-01-2011,07:00,9,R,ugm-3,15,R,ugm-3,29,R,ugm-3,,,,,,
18-01-2011,08:00,36,R,ugm-3,48,R,ugm-3,103,R,ugm-3,,,,,,
18-01-2011,09:00,38,R,ugm-3,44,R,ugm-3,101,R,ugm-3,,,,,,
18-01-2011,10:00,34,R,ugm-3,44,R,ugm-3,96,R,ugm-3,,,,,,
18-01-2011,11:00,30,R,ugm-3,46,R,ugm-3,92,R,ugm-3,,,,,,
18-01-2011,12:00,33,R,ugm-3,44,R,ugm-3,94,R,ugm-3,,,,,,
18-01-2011,13:00,30,R,ugm-3,40,R,ugm-3,86,R,ugm-3,,,,,,
18-01-2011,14:00,29,R,ugm-3,38,R,ugm-3,82,R,ugm-3,,,,,,
18-01-2011,15:00,38,R,ugm-3,50,R,ugm-3,107,R,ugm-3,,,,,,
18-01-2011,16:00,28,R,ugm-3,38,R,ugm-3,80,R,ugm-3,,,,,,
18-01-2011,17:00,28,R,ugm-3,44,R,ugm-3,86,R,ugm-3,,,,,,
18-01-2011,18:00,28,R,ugm-3,36,R,ugm-3,78,R,ugm-3,,,,,,